Location: Barnston
(51.8500°N, 0.4000°E)
Time: 11:12:19
(UTC+00:00)

SKYMED 2 - Pass Details

Date: 26 September 2023
Orbit: 621 x 623 km, 97.9° (Epoch: 29 November)

Event Time Altitude Azimuth Distance (km) Brightness Sun altitude
Rises 04:38:57 0° 154° (SSE) 2,895 7.2 -11.8°
Reaches altitude 10° 04:41:09 10° 151° (SSE) 1,993 6.4 -11.4°
Maximum altitude 04:45:25 61° 71° (ENE) 711 4.2 -10.8°
Drops below altitude 10° 04:49:44 10° 352° (N) 2,010 6.2 -10.1°
Sets 04:51:57 0° 349° (N) 2,922 7.0 -9.8°
